SIA24C OMAA-LFPO

Flight info

Callsign SIA24C
Flight time N/A
Altitude 34000
Route BOSEV N563 ALPOB L768 OBMON/N0508F320 L934 TOKMA/N0506F340 L602 DAMUR/N0506F320 L934 ITEVO/N0504F340 L602 RALKA G795 TASMI L602 GADSI/N0494F360 L602 ALPET L718 KABAN UL718 ORVOR/N0490F380 UL718 INB UL746 ODERO T86 MATEL T746 ARGES DCT UBOGU DCT DITAX DCT KEROP DCT GOTAR DCT LATLO DCT UTABA UM164 LUPEN DCT STR DCT BERUG/N0481F390 V32 EPL
Aircraft B742/H-SDFHIRWXY/L

Departure

Time 2026-05-01 14:11
Airport Zayed International Airport (OMAA)

Arrival

Time N/A
Airport Paris-Orly Airport (LFPO)
Time Latitude Longitude Altitude Speed Heading
2026-05-01 12:47 24.45184 54.64623 92 ft 0 kts 189°
2026-05-01 13:45 24.45185 54.64623 92 ft 1 kts 189°
2026-05-01 13:46 24.45200 54.64626 92 ft 2 kts 189°
2026-05-01 13:46 24.45215 54.64629 92 ft 2 kts 189°
2026-05-01 13:46 24.45230 54.64631 92 ft 2 kts 189°
2026-05-01 13:46 24.45245 54.64634 92 ft 2 kts 189°
2026-05-01 13:47 24.45259 54.64637 92 ft 2 kts 189°
2026-05-01 13:47 24.45274 54.64639 92 ft 2 kts 189°
2026-05-01 13:47 24.45289 54.64642 92 ft 2 kts 189°
2026-05-01 13:47 24.45304 54.64644 92 ft 2 kts 189°
2026-05-01 13:48 24.45319 54.64647 92 ft 2 kts 189°
2026-05-01 13:48 24.45330 54.64649 92 ft 0 kts 189°
2026-05-01 13:55 24.45328 54.64648 92 ft 1 kts 189°
2026-05-01 13:55 24.45298 54.64652 92 ft 6 kts 155°
2026-05-01 13:56 24.45268 54.64713 92 ft 11 kts 100°
2026-05-01 13:56 24.45253 54.64800 92 ft 11 kts 102°
2026-05-01 13:56 24.45232 54.64894 92 ft 13 kts 105°
2026-05-01 13:56 24.45194 54.64983 92 ft 12 kts 124°
2026-05-01 13:57 24.45143 54.65057 92 ft 11 kts 127°
2026-05-01 13:57 24.45092 54.65129 92 ft 12 kts 128°
2026-05-01 13:57 24.45034 54.65210 92 ft 15 kts 128°
2026-05-01 13:57 24.44964 54.65308 92 ft 16 kts 128°
2026-05-01 13:58 24.44892 54.65409 92 ft 16 kts 128°
2026-05-01 13:58 24.44823 54.65507 92 ft 16 kts 127°
2026-05-01 13:58 24.44736 54.65529 92 ft 14 kts 219°
2026-05-01 13:58 24.44648 54.65451 92 ft 18 kts 217°
2026-05-01 13:59 24.44531 54.65353 92 ft 24 kts 218°
2026-05-01 13:59 24.44385 54.65227 92 ft 28 kts 217°
2026-05-01 13:59 24.44233 54.65097 92 ft 27 kts 217°
2026-05-01 13:59 24.44088 54.64975 92 ft 25 kts 218°
2026-05-01 14:00 24.43959 54.64863 92 ft 21 kts 219°
2026-05-01 14:00 24.43846 54.64826 92 ft 16 kts 136°
2026-05-01 14:00 24.43778 54.64922 92 ft 14 kts 129°
2026-05-01 14:00 24.43715 54.65011 92 ft 15 kts 127°
2026-05-01 14:01 24.43648 54.65110 92 ft 16 kts 127°
2026-05-01 14:01 24.43572 54.65213 92 ft 18 kts 128°
2026-05-01 14:01 24.43492 54.65327 92 ft 19 kts 128°
2026-05-01 14:01 24.43407 54.65447 92 ft 20 kts 128°
2026-05-01 14:02 24.43316 54.65574 92 ft 22 kts 128°
2026-05-01 14:02 24.43219 54.65711 92 ft 23 kts 128°
2026-05-01 14:02 24.43117 54.65857 92 ft 24 kts 127°
2026-05-01 14:02 24.43012 54.66005 92 ft 24 kts 130°
2026-05-01 14:03 24.42910 54.66144 92 ft 22 kts 128°
2026-05-01 14:03 24.42819 54.66274 92 ft 20 kts 127°
2026-05-01 14:03 24.42735 54.66392 92 ft 19 kts 128°
2026-05-01 14:03 24.42651 54.66510 92 ft 19 kts 129°
2026-05-01 14:04 24.42567 54.66626 92 ft 19 kts 128°
2026-05-01 14:04 24.42484 54.66742 92 ft 18 kts 127°
2026-05-01 14:04 24.42413 54.66840 92 ft 13 kts 137°
2026-05-01 14:04 24.42350 54.66851 93 ft 7 kts 212°
2026-05-01 14:05 24.42326 54.66831 92 ft 0 kts 217°
2026-05-01 14:08 24.42321 54.66828 92 ft 1 kts 217°
2026-05-01 14:08 24.42288 54.66801 92 ft 10 kts 217°
2026-05-01 14:08 24.42216 54.66740 93 ft 14 kts 220°
2026-05-01 14:09 24.42223 54.66646 93 ft 13 kts 302°
2026-05-01 14:09 24.42253 54.66600 93 ft 0 kts 308°
2026-05-01 14:10 24.42274 54.66571 92 ft 20 kts 309°
2026-05-01 14:10 24.42496 54.66259 93 ft 81 kts 308°
2026-05-01 14:10 24.42959 54.65607 93 ft 134 kts 308°
2026-05-01 14:10 24.43631 54.64658 128 ft 175 kts 308°
2026-05-01 14:11 24.44384 54.63558 503 ft 183 kts 308°
2026-05-01 14:11 24.46035 54.61340 1444 ft 196 kts 314°
2026-05-01 14:11 24.46944 54.60207 1985 ft 198 kts 313°
2026-05-01 14:12 24.47873 54.59012 2002 ft 216 kts 313°
2026-05-01 14:12 24.48864 54.57737 2185 ft 226 kts 313°
2026-05-01 14:12 24.49895 54.56364 2402 ft 238 kts 308°
2026-05-01 14:12 24.50891 54.54901 2773 ft 242 kts 309°
2026-05-01 14:13 24.51923 54.53420 3065 ft 250 kts 309°
2026-05-01 14:13 24.53003 54.51876 3466 ft 254 kts 309°
2026-05-01 14:13 24.54079 54.50338 3943 ft 254 kts 309°
2026-05-01 14:13 24.55139 54.48820 4403 ft 254 kts 309°
2026-05-01 14:14 24.56225 54.47267 4795 ft 257 kts 308°
2026-05-01 14:14 24.57306 54.45719 5234 ft 258 kts 308°
2026-05-01 14:14 24.58404 54.44149 5619 ft 260 kts 308°
2026-05-01 14:14 24.59515 54.42558 6059 ft 260 kts 308°
2026-05-01 14:15 24.60612 54.40984 6457 ft 262 kts 307°
2026-05-01 14:15 24.61714 54.39405 6932 ft 260 kts 307°
2026-05-01 14:15 24.62811 54.37833 7343 ft 260 kts 307°
2026-05-01 14:15 24.63916 54.36247 7769 ft 261 kts 307°
2026-05-01 14:16 24.65024 54.34656 8189 ft 262 kts 307°
2026-05-01 14:16 24.66123 54.33080 8629 ft 263 kts 306°
2026-05-01 14:16 24.67242 54.31473 9096 ft 263 kts 306°
2026-05-01 14:16 24.68345 54.29889 9557 ft 263 kts 306°
2026-05-01 14:17 24.69467 54.28278 9953 ft 266 kts 306°
2026-05-01 14:17 24.70585 54.26671 10406 ft 267 kts 306°
2026-05-01 14:17 24.71719 54.25040 10657 ft 275 kts 306°
2026-05-01 14:17 24.72914 54.23320 10827 ft 288 kts 306°
2026-05-01 14:18 24.74156 54.21533 10995 ft 301 kts 306°
2026-05-01 14:18 24.75452 54.19668 11150 ft 314 kts 306°
2026-05-01 14:18 24.76819 54.17702 11302 ft 328 kts 306°
2026-05-01 14:18 24.77745 54.16368 11406 ft 337 kts 306°
2026-05-01 14:19 24.79701 54.13552 11623 ft 354 kts 306°
2026-05-01 14:19 24.81210 54.11380 11904 ft 363 kts 306°
2026-05-01 14:19 24.82732 54.09190 12481 ft 363 kts 305°
2026-05-01 14:19 24.84187 54.06919 13030 ft 363 kts 301°
2026-05-01 14:20 24.85539 54.04553 13494 ft 367 kts 300°
2026-05-01 14:20 24.88217 53.99728 14485 ft 372 kts 299°
2026-05-01 14:20 24.89574 53.97293 14946 ft 375 kts 299°
2026-05-01 14:21 24.90962 53.94812 15383 ft 379 kts 299°
2026-05-01 14:21 24.92344 53.92348 15860 ft 381 kts 298°
2026-05-01 14:21 24.93748 53.89843 16304 ft 385 kts 298°
2026-05-01 14:22 24.96588 53.84778 17244 ft 389 kts 298°
2026-05-01 14:22 24.98014 53.82234 17691 ft 392 kts 298°
2026-05-01 14:22 24.99434 53.79697 18123 ft 395 kts 298°
2026-05-01 14:22 25.00895 53.77097 18622 ft 396 kts 299°
2026-05-01 14:23 25.02571 53.74675 19047 ft 403 kts 308°
2026-05-01 14:23 25.04535 53.72467 19502 ft 406 kts 312°
2026-05-01 14:23 25.06594 53.70316 19948 ft 409 kts 313°
2026-05-01 14:23 25.08666 53.68171 20374 ft 412 kts 313°
2026-05-01 14:24 25.10778 53.65962 20791 ft 414 kts 312°
2026-05-01 14:24 25.12833 53.63792 21242 ft 415 kts 312°
2026-05-01 14:24 25.14929 53.61563 21641 ft 417 kts 311°
2026-05-01 14:24 25.17027 53.59321 22001 ft 420 kts 311°
2026-05-01 14:25 25.19120 53.57079 22410 ft 421 kts 311°
2026-05-01 14:25 25.21213 53.54836 22777 ft 423 kts 311°
2026-05-01 14:25 25.23334 53.52560 23170 ft 424 kts 311°
2026-05-01 14:25 25.25435 53.50306 23558 ft 425 kts 311°
2026-05-01 14:26 25.27574 53.48008 23890 ft 427 kts 311°
2026-05-01 14:26 25.31808 53.43401 24587 ft 429 kts 310°
2026-05-01 14:26 25.33931 53.41077 24924 ft 430 kts 310°
2026-05-01 14:27 25.36058 53.38756 25219 ft 432 kts 310°
2026-05-01 14:27 25.38223 53.36399 25565 ft 433 kts 310°
2026-05-01 14:27 25.40368 53.34067 25863 ft 434 kts 310°
2026-05-01 14:28 25.44684 53.29380 26433 ft 438 kts 310°
2026-05-01 14:28 25.46859 53.27018 26793 ft 437 kts 310°
2026-05-01 14:28 25.49045 53.24644 27047 ft 440 kts 309°
2026-05-01 14:28 25.51220 53.22279 27324 ft 441 kts 309°
2026-05-01 14:29 25.53406 53.19902 27605 ft 442 kts 309°
2026-05-01 14:29 25.55616 53.17498 27856 ft 443 kts 309°
2026-05-01 14:30 25.62200 53.10327 28648 ft 446 kts 309°
2026-05-01 14:30 25.64435 53.07890 28864 ft 447 kts 309°
2026-05-01 14:30 25.66656 53.05466 29103 ft 448 kts 309°
2026-05-01 14:31 25.70802 53.00389 29392 ft 442 kts 298°
2026-05-01 14:31 25.72364 52.97455 29585 ft 440 kts 293°
2026-05-01 14:31 25.73772 52.94459 29769 ft 440 kts 292°
2026-05-01 14:31 25.75145 52.91441 29921 ft 441 kts 292°
2026-05-01 14:32 25.76534 52.88390 30061 ft 443 kts 292°
2026-05-01 14:32 25.77927 52.85361 30208 ft 445 kts 292°
2026-05-01 14:32 25.79348 52.82297 30393 ft 445 kts 292°
2026-05-01 14:32 25.80769 52.79258 30588 ft 445 kts 292°
2026-05-01 14:33 25.82216 52.76170 30726 ft 447 kts 292°
2026-05-01 14:33 25.83657 52.73100 30859 ft 448 kts 292°
2026-05-01 14:33 25.85099 52.70030 31037 ft 448 kts 292°
2026-05-01 14:33 25.86543 52.66954 31147 ft 450 kts 292°
2026-05-01 14:34 25.87988 52.63874 31304 ft 450 kts 292°
2026-05-01 14:34 25.90842 52.57653 31526 ft 452 kts 291°
2026-05-01 14:35 25.93607 52.51341 31728 ft 454 kts 290°
2026-05-01 14:35 25.96393 52.44950 31841 ft 459 kts 290°
2026-05-01 14:36 25.99190 52.38565 31857 ft 465 kts 291°
2026-05-01 14:36 26.02119 52.32035 31862 ft 467 kts 291°
2026-05-01 14:37 26.05008 52.25614 31860 ft 465 kts 291°
2026-05-01 14:37 26.07897 52.19171 31859 ft 465 kts 290°
2026-05-01 14:38 26.10781 52.12723 31868 ft 467 kts 290°
2026-05-01 14:38 26.13662 52.06267 31870 ft 466 kts 291°
2026-05-01 14:39 26.16552 51.99784 31866 ft 466 kts 291°
2026-05-01 14:39 26.19470 51.93229 31858 ft 465 kts 290°
2026-05-01 14:40 26.22332 51.86791 31859 ft 466 kts 291°
2026-05-01 14:40 26.25228 51.80262 31848 ft 466 kts 291°
2026-05-01 14:41 26.28118 51.73743 31850 ft 464 kts 291°
2026-05-01 14:41 26.30978 51.67279 31858 ft 464 kts 290°
2026-05-01 14:42 26.33826 51.60828 31857 ft 465 kts 291°
2026-05-01 14:42 26.36677 51.54367 31853 ft 464 kts 290°
2026-05-01 14:43 26.39094 51.47754 31854 ft 460 kts 285°
2026-05-01 14:43 26.41196 51.41002 31855 ft 459 kts 284°
2026-05-01 14:44 26.43281 51.34301 31860 ft 460 kts 284°
2026-05-01 14:44 26.46456 51.24213 31857 ft 457 kts 284°
2026-05-01 14:45 26.49626 51.14160 31862 ft 458 kts 284°
2026-05-01 14:46 26.51747 51.07422 31864 ft 460 kts 284°
2026-05-01 14:46 26.54919 50.97323 31862 ft 458 kts 284°
2026-05-01 14:47 26.57030 50.90583 31860 ft 458 kts 284°
2026-05-01 14:48 26.60198 50.80444 31866 ft 459 kts 284°
2026-05-01 14:48 26.63682 50.70445 31880 ft 466 kts 296°
2026-05-01 14:49 26.68058 50.64931 31888 ft 482 kts 310°
2026-05-01 14:49 26.73209 50.60039 31882 ft 486 kts 313°
2026-05-01 14:50 26.83589 50.50412 31884 ft 482 kts 313°
2026-05-01 14:51 26.91320 50.43111 31888 ft 483 kts 313°
2026-05-01 14:52 26.99026 50.35813 31884 ft 480 kts 313°
2026-05-01 14:53 27.06676 50.28551 31882 ft 482 kts 312°
2026-05-01 14:53 27.11787 50.23694 31873 ft 481 kts 312°
2026-05-01 14:54 27.16959 50.18850 31872 ft 481 kts 314°
2026-05-01 14:54 27.22254 50.14214 31881 ft 484 kts 315°
2026-05-01 14:55 27.27601 50.09578 31881 ft 484 kts 315°
2026-05-01 14:55 27.32927 50.04940 31877 ft 482 kts 315°
2026-05-01 14:56 27.38247 50.00284 31871 ft 483 kts 315°
2026-05-01 14:56 27.43582 49.95604 31878 ft 484 kts 315°
2026-05-01 14:57 27.48864 49.90970 32117 ft 478 kts 315°
2026-05-01 14:57 27.54130 49.86345 32425 ft 475 kts 314°
2026-05-01 14:57 27.56701 49.84083 32577 ft 474 kts 314°
2026-05-01 14:58 27.59310 49.81785 32730 ft 473 kts 314°
2026-05-01 14:58 27.61888 49.79514 32866 ft 472 kts 314°
2026-05-01 14:58 27.64485 49.77224 33023 ft 472 kts 314°
2026-05-01 14:58 27.67087 49.74929 33171 ft 471 kts 314°
2026-05-01 14:59 27.69657 49.72659 33306 ft 471 kts 314°
2026-05-01 14:59 27.72236 49.70380 33421 ft 471 kts 314°
2026-05-01 14:59 27.74786 49.68127 33545 ft 471 kts 314°
2026-05-01 14:59 27.77358 49.65852 33678 ft 470 kts 314°
2026-05-01 15:00 27.82503 49.61298 33867 ft 471 kts 314°
2026-05-01 15:00 27.85090 49.59005 33880 ft 473 kts 314°
2026-05-01 15:01 27.90267 49.54411 33891 ft 476 kts 314°
2026-05-01 15:01 27.95503 49.49764 33884 ft 477 kts 314°
2026-05-01 15:02 28.00715 49.45131 33894 ft 478 kts 314°
2026-05-01 15:02 28.05942 49.40482 33892 ft 478 kts 314°
2026-05-01 15:03 28.11146 49.35844 33899 ft 477 kts 314°
2026-05-01 15:03 28.16366 49.31187 33897 ft 477 kts 313°
2026-05-01 15:04 28.21594 49.26516 33901 ft 476 kts 314°
2026-05-01 15:04 28.26774 49.21881 33910 ft 476 kts 314°
2026-05-01 15:05 28.31961 49.17235 33905 ft 476 kts 314°
2026-05-01 15:05 28.37183 49.12552 33905 ft 476 kts 314°
2026-05-01 15:06 28.42555 49.08107 33910 ft 481 kts 317°
2026-05-01 15:06 28.48122 49.03896 33903 ft 482 kts 318°
2026-05-01 15:07 28.53708 48.99675 33910 ft 481 kts 318°
2026-05-01 15:07 28.59243 48.95458 33898 ft 480 kts 318°
2026-05-01 15:08 28.64794 48.91210 33889 ft 479 kts 318°
2026-05-01 15:08 28.70470 48.86856 33888 ft 479 kts 318°
2026-05-01 15:09 28.75991 48.82616 33886 ft 479 kts 318°
2026-05-01 15:09 28.81517 48.78370 33884 ft 478 kts 318°
2026-05-01 15:10 28.86997 48.74150 33880 ft 478 kts 318°
2026-05-01 15:10 28.95169 48.67849 33877 ft 478 kts 318°
2026-05-01 15:11 29.03406 48.61486 33881 ft 476 kts 318°
2026-05-01 15:12 29.08883 48.57246 33882 ft 477 kts 318°
2026-05-01 15:12 29.17118 48.50863 33891 ft 475 kts 318°
2026-05-01 15:14 29.30756 48.40263 33882 ft 475 kts 318°
2026-05-01 15:14 29.38968 48.33865 33891 ft 476 kts 318°
2026-05-01 15:15 29.50287 48.25860 33881 ft 477 kts 322°
2026-05-01 15:16 29.61821 48.18337 33887 ft 478 kts 322°
2026-05-01 15:18 29.76221 48.08830 33888 ft 477 kts 322°
2026-05-01 15:19 29.87749 48.01191 33881 ft 477 kts 322°
2026-05-01 15:19 29.96361 47.95470 33863 ft 478 kts 322°
2026-05-01 15:20 30.01803 47.91260 33860 ft 465 kts 310°
2026-05-01 15:20 30.04060 47.88656 33862 ft 461 kts 306°
2026-05-01 15:21 30.08271 47.83087 33859 ft 459 kts 304°
2026-05-01 15:21 30.12403 47.77467 33867 ft 459 kts 304°
2026-05-01 15:22 30.18598 47.69126 33860 ft 458 kts 304°
2026-05-01 15:22 30.22755 47.63548 33872 ft 459 kts 304°
2026-05-01 15:23 30.26909 47.57974 33866 ft 459 kts 304°
2026-05-01 15:23 30.31086 47.52361 33871 ft 459 kts 304°
2026-05-01 15:24 30.35251 47.46756 33876 ft 460 kts 305°
2026-05-01 15:24 30.39396 47.41170 33870 ft 460 kts 304°
2026-05-01 15:25 30.43564 47.35546 33871 ft 459 kts 304°
2026-05-01 15:25 30.47722 47.29923 33865 ft 460 kts 304°
2026-05-01 15:26 30.51897 47.24273 33867 ft 460 kts 304°
2026-05-01 15:26 30.56037 47.18662 33863 ft 459 kts 304°
2026-05-01 15:27 30.60163 47.13061 33860 ft 459 kts 304°
2026-05-01 15:28 30.66381 47.04604 33862 ft 462 kts 304°
2026-05-01 15:28 30.70558 46.98913 33858 ft 462 kts 304°
2026-05-01 15:29 30.76775 46.90428 33858 ft 463 kts 304°
2026-05-01 15:30 30.85107 46.79028 33858 ft 463 kts 304°
2026-05-01 15:31 30.97600 46.61872 33849 ft 464 kts 304°
2026-05-01 15:32 31.05890 46.50446 33858 ft 463 kts 304°
2026-05-01 15:34 31.18330 46.33234 33861 ft 463 kts 305°